[[{"header":{"parameterUnit":"m.s-1","parameterCategory":1,"la1":30.2991,"la2":30.254,"lo1":-89.0895,"lo2":-89.0444,"dy":0.0017,"dx":0.0017,"nx":28,"ny":28,"refTime":"2024-06-30T03:00:00:Z","depth":0,"parameterNumber":2,"parameterNumberName":"U-component_of_WINDS"},"data":[0,0,0,0,0,0,0,0,0,0,0,0,0,0,0,0,0,0,0,0,0,0,0,0,0,0,0,0,0,0,0,0,0,0,0,0,0,0,0,0,0,0,0,0,0,0,0,0,0,0,0,0,0,0,0,0,0,0,2.5191,2.5193,0,2.5411,2.5413,2.5416,2.5456,2.5454,2.5452,2.545,2.5682,2.569,2.5697,0,0,0,0,0,0,0,0,0,0,0,0,0,2.4814,2.4821,2.5191,2.5194,2.5196,2.541,2.5413,2.5416,2.5456,2.5454,2.5451,2.5449,2.5679,2.5689,2.5698,0,0,0,0,0,0,0,0,0,0,0,0,0,2.5,2.4823,2.519,2.5242,2.5249,2.5409,2.5413,2.5417,2.5456,2.5454,2.5451,2.5448,2.5676,2.5688,2.5699,2.5827,0,0,2.5735,2.5741,0,0,0,0,0,0,0,0,2.4989,2.5014,2.5231,2.5239,2.5246,2.5403,2.5365,2.5555,2.5457,2.5378,2.545,2.5447,2.5592,2.561,2.5658,2.5838,2.5847,2.5736,2.5744,2.5749,2.5752,0,0,0,0,0,0,0,2.4976,2.5005,2.5278,2.5235,2.5244,2.5256,2.528,2.5401,2.5498,2.5384,2.5388,2.5413,2.5595,2.5646,2.5663,2.5851,2.5736,2.5747,2.5754,2.5759,2.6149,2.6152,0,0,0,0,0,0,2.4953,2.4994,2.5271,2.5285,2.5108,2.5265,2.5292,2.5355,2.5496,2.5515,2.5415,2.5414,2.5627,2.565,2.5672,2.5831,2.5749,2.576,2.5766,2.6146,2.615,2.6153,0,0,0,0,0,0,2.4945,2.4978,2.5262,2.514,2.5177,2.5275,2.5346,2.5361,2.5412,2.5519,2.5537,2.5449,2.5626,2.5655,2.5788,2.584,2.5765,2.5776,2.6142,2.6147,2.6151,2.615,0,0,0,0,0,0,2.4934,2.4974,2.5022,2.5141,2.5184,2.5372,2.5349,2.5367,2.5431,2.5432,2.5556,2.5574,2.5626,2.577,2.58,2.5855,2.5785,2.6138,2.6144,2.615,2.6146,2.6154,2.6161,0,0,0,0,0,2.492,2.5014,2.5024,2.5057,2.5244,2.5375,2.54,2.5456,2.5435,2.5485,2.5554,2.557,2.5829,2.5783,2.5817,2.5876,2.6135,2.6142,2.6149,2.6142,2.6152,2.6161,0,0,0,0,0,0,2.49,2.503,2.5043,2.5177,2.5264,2.5381,2.5445,2.5465,2.5562,2.5559,2.5627,2.5655,2.5784,2.5844,2.579,2.6008,2.5981,2.5995,2.5964,2.5975,2.5982,2.5965,2.5795,0,0,0,0,0,2.491,2.5003,2.5113,2.5221,2.5264,2.5347,2.5406,2.5442,2.5536,2.5574,2.5653,2.5746,2.5849,2.5915,2.6016,2.6155,2.6184,2.6213,2.622,2.6226,2.6238,2.6318,2.6332,2.6178,2.6177,2.6177,0,0,2.4934,2.5017,2.5072,2.5219,2.5291,2.5388,2.5378,2.5481,2.5554,2.5591,2.572,2.5782,2.5891,2.6027,2.6091,2.6081,2.6287,2.6236,2.6239,2.6248,2.6327,2.6341,2.6354,2.6183,2.6182,2.6181,0,0,2.5027,2.5098,2.5196,2.5268,2.5377,2.5432,2.5455,2.557,2.5612,2.5743,2.5773,2.5863,2.6037,2.6114,2.6176,2.6299,2.6318,2.6331,2.6371,2.6448,2.646,2.6472,2.6517,2.6532,2.6342,2.6342,2.6342,0,2.5043,2.5187,2.5244,2.5346,2.5411,2.5447,2.5548,2.5617,2.5754,2.5799,2.5785,2.6006,2.6081,2.6237,2.6267,2.6316,2.6347,2.6316,2.6454,2.6466,2.6477,2.6521,2.6537,2.6343,2.6343,2.6343,2.6343,0,2.5203,2.5303,2.537,2.5499,2.5572,2.5673,2.5747,2.5815,2.5845,2.5903,2.6037,2.6129,2.6249,2.6289,2.6321,2.6451,2.6441,2.6439,2.6413,2.6491,2.6534,2.6551,2.6344,2.6344,2.6344,2.6343,0,0,2.5287,2.5447,2.547,2.553,2.5654,2.5734,2.5838,2.5954,2.6011,2.6105,2.6195,2.6343,2.6343,2.6413,2.6454,2.6521,2.6615,2.6513,2.6516,2.6529,2.6766,2.6765,2.6784,2.6628,2.6632,2.6634,2.6757,0,2.5394,2.5578,2.5633,2.5789,2.5883,2.592,2.6012,2.6099,2.6156,2.6247,2.6311,2.6415,2.6406,2.6449,2.6518,2.6589,2.6664,2.6581,2.6715,2.6719,2.6686,2.6806,2.6806,2.6916,2.6773,2.6776,2.6778,0,2.5543,2.5638,2.5802,2.5915,2.5957,2.6038,2.6149,2.6235,2.6336,2.6373,2.6452,2.6487,2.66,2.6568,2.6726,2.6668,2.6727,2.6771,2.6777,2.6791,2.6753,2.6824,2.6953,2.6969,2.6805,2.6803,2.6801,0,2.5589,2.5758,2.5878,2.5928,2.6063,2.6119,2.6178,2.6276,2.6343,2.6441,2.6486,2.6597,2.6658,2.6744,2.681,2.678,2.6963,2.6936,2.6998,2.6997,2.7035,2.7031,2.7175,2.7073,2.7072,2.7072,2.7072,0,2.5703,2.5802,2.5901,2.5974,2.6088,2.6152,2.6263,2.6325,2.6412,2.6501,2.6541,2.6624,2.6705,2.68,2.6852,2.6976,2.7003,2.7038,2.7051,2.7034,2.703,2.7073,2.7067,2.7076,2.7075,2.7075,2.7074,0,2.5772,2.5842,2.5975,2.6092,2.6124,2.6202,2.6303,2.6378,2.6437,2.6549,2.6579,2.6673,2.6787,2.6861,2.7006,2.7042,2.7177,2.7188,2.7142,2.7148,2.7206,2.7199,2.7382,2.741,2.7289,2.729,2.7291,0,2.5839,2.5916,2.6041,2.6102,2.6161,2.626,2.6328,2.6395,2.6465,2.6587,2.6647,2.6763,2.6859,2.7039,2.7122,2.7234,2.7248,2.7305,2.7265,2.7247,2.725,2.7244,2.7252,2.7311,2.7312,2.7313,2.7313,0,2.5952,2.5984,2.6079,2.6187,2.6266,2.6355,2.6445,2.6493,2.6577,2.6654,2.6769,2.6843,2.6992,2.7107,2.7227,2.7291,2.7317,2.7325,2.7346,2.7329,2.7299,2.7316,2.7159,2.732,2.732,2.7319,2.7319,2.7318,2.6023,2.6094,2.6193,2.6298,2.6372,2.6455,2.6531,2.66,2.6697,2.6821,2.6856,2.6977,2.7079,2.7242,2.7308,2.7406,2.7399,2.7429,2.7436,2.7442,2.7443,2.7284,2.7428,2.7428,2.7428,2.7428,2.7428,0,2.6139,2.6204,2.6301,2.6423,2.6507,2.6523,2.6623,2.6692,2.6798,2.6889,2.6983,2.7117,2.7229,2.7321,2.7437,2.7498,2.7513,2.7526,2.7522,2.7537,2.7442,2.7412,2.7512,2.7512,2.7512,2.7512,2.7512,2.7512,2.6208,2.6329,2.6372,2.6531,2.6597,2.6714,2.677,2.6847,2.6921,2.7068,2.7161,2.7219,2.7312,2.7436,2.7541,2.7565,2.7606,2.7617,2.7644,2.7553,2.7544,2.7535,2.7507,2.7625,2.7626,2.7731,2.7732,2.7733]},{"header":{"parameterUnit":"m.s-1","parameterCategory":1,"la1":30.2991,"la2":30.254,"lo1":-89.0895,"lo2":-89.0444,"dy":0.0017,"dx":0.0017,"nx":28,"ny":28,"refTime":"2024-06-30T03:00:00:Z","depth":0,"parameterNumber":3,"parameterNumberName":"V-component_of_WINDS"},"data":[0,0,0,0,0,0,0,0,0,0,0,0,0,0,0,0,0,0,0,0,0,0,0,0,0,0,0,0,0,0,0,0,0,0,0,0,0,0,0,0,0,0,0,0,0,0,0,0,0,0,0,0,0,0,0,0,0,0,2.4769,2.477,0,2.488,2.4881,2.4882,2.4803,2.48,2.4796,2.4793,2.4909,2.4915,2.4922,0,0,0,0,0,0,0,0,0,0,0,0,0,2.4485,2.4491,2.4768,2.477,2.4771,2.488,2.4881,2.4883,2.4804,2.4799,2.4795,2.4791,2.4907,2.4915,2.4922,0,0,0,0,0,0,0,0,0,0,0,0,0,2.4604,2.4493,2.4768,2.4745,2.4744,2.4879,2.4881,2.4883,2.4805,2.4799,2.4794,2.4789,2.4905,2.4914,2.4923,2.5089,0,0,2.4953,2.4957,0,0,0,0,0,0,0,0,2.4597,2.4614,2.4747,2.4747,2.4746,2.4822,2.4824,2.4952,2.4806,2.4782,2.4793,2.4786,2.4885,2.4896,2.4928,2.5094,2.5099,2.4954,2.4959,2.4964,2.4966,0,0,0,0,0,0,0,2.4589,2.4609,2.4813,2.4749,2.4748,2.4728,2.4739,2.4848,2.4862,2.4783,2.4778,2.4792,2.4883,2.4919,2.493,2.5101,2.4953,2.4962,2.4968,2.4972,2.5402,2.5407,0,0,0,0,0,0,2.4583,2.4603,2.4809,2.4816,2.4657,2.4738,2.475,2.4803,2.486,2.4864,2.4796,2.4788,2.4905,2.4919,2.4934,2.5127,2.4963,2.4972,2.4978,2.5396,2.5403,2.5409,0,0,0,0,0,0,2.4577,2.4602,2.4805,2.4708,2.4732,2.4748,2.4808,2.4808,2.4844,2.487,2.4872,2.4831,2.4902,2.4921,2.5049,2.513,2.4977,2.4986,2.5389,2.5398,2.5406,2.5517,0,0,0,0,0,0,2.457,2.4601,2.4665,2.471,2.4738,2.4919,2.4814,2.4814,2.486,2.485,2.4903,2.4906,2.4899,2.5035,2.5059,2.5141,2.4993,2.5382,2.5393,2.5403,2.5507,2.5529,2.5548,0,0,0,0,0,2.456,2.4694,2.4668,2.4694,2.4818,2.4924,2.494,2.4928,2.4867,2.493,2.4946,2.4905,2.5118,2.5049,2.5075,2.5161,2.5377,2.539,2.5402,2.5497,2.5524,2.5547,0,0,0,0,0,0,2.466,2.4699,2.4672,2.4824,2.4871,2.491,2.499,2.4958,2.5024,2.5012,2.4995,2.5007,2.5141,2.5164,2.5087,2.5321,2.5237,2.5256,2.5301,2.5327,2.5347,2.5338,2.5001,0,0,0,0,0,2.4699,2.4782,2.4812,2.4944,2.4968,2.4975,2.5021,2.5007,2.5056,2.5075,2.5101,2.515,2.5226,2.5278,2.5351,2.5509,2.5517,2.5581,2.5601,2.5618,2.5634,2.5714,2.5741,2.5451,2.5451,2.5451,0,0,2.4782,2.4814,2.4868,2.4964,2.4999,2.5083,2.4993,2.5088,2.515,2.509,2.5212,2.5232,2.5285,2.5427,2.5491,2.5451,2.5715,2.5634,2.5647,2.5654,2.573,2.5757,2.5781,2.546,2.5458,2.5457,0,0,2.4976,2.501,2.512,2.5155,2.5208,2.5211,2.5237,2.5281,2.5291,2.5412,2.5368,2.5441,2.5576,2.5613,2.565,2.5852,2.5814,2.5877,2.5983,2.6062,2.6084,2.6104,2.6173,2.6198,2.5892,2.5893,2.5893,0,2.5073,2.5198,2.5182,2.5278,2.532,2.5267,2.5377,2.5413,2.5488,2.5517,2.547,2.5633,2.5666,2.5814,2.5862,2.5896,2.5923,2.587,2.6082,2.6102,2.6121,2.6185,2.6212,2.59,2.5899,2.5898,2.5897,0,2.5312,2.54,2.5483,2.5553,2.5604,2.5708,2.5705,2.5759,2.5739,2.5747,2.5868,2.5904,2.5981,2.6015,2.5999,2.616,2.6132,2.6085,2.6,2.6156,2.6216,2.6241,2.591,2.5907,2.5905,2.5903,0,0,2.5575,2.563,2.566,2.5689,2.574,2.5807,2.5907,2.598,2.6024,2.6077,2.6157,2.6269,2.6223,2.6265,2.6252,2.6321,2.6473,2.6264,2.6265,2.6298,2.6647,2.6681,2.671,2.6448,2.6453,2.6457,2.6641,0,2.5768,2.5939,2.5925,2.6087,2.6165,2.6114,2.6199,2.6239,2.6248,2.6315,2.6324,2.6402,2.6338,2.6362,2.6428,2.6441,2.6542,2.6427,2.6521,2.6524,2.6507,2.6742,2.678,2.6952,2.6665,2.6669,2.6672,0,2.6017,2.6074,2.6243,2.6277,2.631,2.6387,2.645,2.6516,2.6558,2.6559,2.6603,2.6577,2.6674,2.6588,2.6719,2.6641,2.6678,2.669,2.6696,2.6703,2.6607,2.6753,2.7008,2.7033,2.671,2.6707,2.6704,0,2.6186,2.6306,2.6421,2.6447,2.6492,2.6546,2.6568,2.6605,2.6648,2.6703,2.673,2.6797,2.6833,2.6884,2.6875,2.6813,2.7008,2.6922,2.7009,2.7009,2.7052,2.7049,2.7313,2.708,2.7079,2.7079,2.7078,0,2.6402,2.6507,2.6496,2.6567,2.6681,2.6663,2.6776,2.6791,2.6823,2.6894,2.6855,2.6923,2.6908,2.6974,2.6968,2.7075,2.7093,2.7095,2.7091,2.7097,2.7096,2.712,2.7107,2.7086,2.7084,2.7083,2.7082,0,2.6611,2.6608,2.673,2.676,2.677,2.6852,2.6878,2.6943,2.6947,2.7037,2.7057,2.7063,2.7138,2.7134,2.7221,2.7216,2.7348,2.7332,2.7333,2.7329,2.7415,2.7405,2.7702,2.7738,2.7484,2.7486,2.7488,0,2.6748,2.6826,2.6864,2.6907,2.6931,2.7004,2.7046,2.7029,2.7075,2.7126,2.7185,2.7256,2.7313,2.7436,2.7447,2.7512,2.7495,2.7594,2.7505,2.7506,2.7493,2.7487,2.7493,2.7612,2.7615,2.7617,2.7619,0,2.699,2.6983,2.7046,2.7107,2.7158,2.7206,2.7249,2.7287,2.7275,2.7328,2.7403,2.7447,2.7532,2.7603,2.7663,2.7684,2.7649,2.7647,2.767,2.7676,2.7671,2.7671,2.7378,2.764,2.7638,2.7636,2.7635,2.7635,2.7164,2.7229,2.7264,2.7334,2.7364,2.7404,2.7466,2.7475,2.7538,2.7605,2.7592,2.7676,2.7712,2.7789,2.7815,2.7879,2.7843,2.7878,2.7886,2.7894,2.7902,2.7662,2.789,2.789,2.7889,2.7889,2.7888,0,2.7401,2.742,2.7484,2.7544,2.7598,2.7559,2.7603,2.7651,2.7725,2.7761,2.7816,2.79,2.7967,2.7982,2.8045,2.8093,2.8078,2.811,2.8106,2.811,2.7932,2.7904,2.8121,2.8121,2.8121,2.8121,2.8121,2.8121,2.753,2.7637,2.7634,2.7754,2.7772,2.7853,2.7881,2.7917,2.7945,2.8041,2.8095,2.8104,2.8131,2.8195,2.8253,2.8255,2.8279,2.8317,2.8313,2.8147,2.8123,2.8101,2.8074,2.8323,2.8323,2.8485,2.8486,2.8487]}]]